Weather in Klaten

Indonesia     7°42′48″S   110°35′32″E
temp.,
°C
wind,
m/s
gust,
m/s
humid.,
%
clouds,
%
prec.,
mm/h
press.,
hPa
HPBL,
m
11 april, sun
sun1101:00+24wsw0089100 4.7 101211
04:00+24wsw1191100 0.9 101211
07:00+25nne118548 1.2 1013159
10:00+29e33675 0.0 1013870
13:00+31sse215828 0.3 10101436
16:00+28s337780 4.2 1009695
19:00+25wsw1189100 7.4 101240
22:00+24w1189100 0.1 101315
12 april, mon
mon1201:00+24w1190100 0.1 101226
04:00+23wnw1192100 0.2 101215
07:00+25wsw118778 0.3 1013170
10:00+29ssw337132 0.6 10131024
13:00+30s446215 1.6 10101380
16:00+28ssw457389 1.1 1010752
19:00+24sw2387100 1.2 101269
22:00+24w2390100 0.0 101476
13 april, tue
tue1301:00+23wnw2291100 0.0 101237
04:00+22wnw229242 0.0 101227
07:00+24w128398 0.0 1013162
10:00+29sw226342 0.0 10131021
13:00+31s3357100 0.6 10101644
16:00+27sw347790 2.3 1010510
19:00+24wsw2391100 4.0 101263
22:00+23wnw119310 0.2 101321
14 april, wed
wed1401:00+23wnw119222 0.3 101219
04:00+22wnw119198 0.0 101118
07:00+24w128396 0.0 1012154
10:00+28sw2267100 0.0 1012936
13:00+30ssw335983 0.1 10091553
16:00+28ssw447145 1.3 1009959
19:00+24sw2389100 1.4 101267
22:00+23wnw119031 0.1 101322
15 april, thu
thu1501:00+23wnw1191100 0.1 101223
04:00+22wnw2292100 0.0 101125
07:00+24wsw128421 0.0 1013203
10:00+28ssw236738 0.0 10121124
13:00+31s435044 0.2 10101705
16:00+28s4466100 0.0 10091084
19:00+23w2288100 0.1 101244
22:00+23wnw2290100 0.2 101347